Regional Weather Roundup
Issued by NWS Albany, NY

Home | Current Version | Previous Version | Graphics & Text | Print | Product List | Glossary On
Versions: 1 2 3 4 5 6 7 8 9 10 11 12 13 14 15 16 17 18 19 20 21 22 23 24 25 26 27 28
000
ASUS41 KALY 251710
RWRALY

NEW YORK STATE HOURLY WEATHER ROUNDUP
NATIONAL WEATHER SERVICE ALBANY NY
100 PM EDT WED APR 25 2018

NOTE: "FAIR" INDICATES FEW OR NO CLOUDS BELOW 12,000 FEET WITH NO
SIGNIFICANT WEATHER AND/OR NO OBSTRUCTIONS TO VISIBILITY.

NYZ032-033-038>043-046>054-057>066-NYZ062>081-082-084-251800-
EAST


CITY           SKY/WX    TMP DP  RH WIND       PRES   REMARKS
ALBANY         LGT RAIN  54  51  90 N3        29.87F FOG
GLENS FALLS    RAIN      52  51  97 NE8       29.89F FOG
POUGHKEEPSIE   CLOUDY    55  54  96 NW5       29.81F FOG
NEWBURGH       LGT RAIN  57  57 100 E7        29.83F FOG
MONTGOMERY     LGT RAIN  54  53  97 N9        29.81F FOG
WHITE PLAINS   LGT RAIN  55  55 100 E9        29.80F VSB 3/4
ISLIP          FOG       56  56 100 SE18      29.80F VSB 1/2
NEW YORK CITY  CLOUDY    61  57  87 SE18G24   29.77F FOG
CENTRAL PARK   CLOUDY    60  58  92 SE10G16   29.80F
$$

NYZ005>009-017-018-044>046-055-056-251800-
CENTRAL


CITY           SKY/WX    TMP DP  RH WIND       PRES   REMARKS
FULTON         CLOUDY    55  49  80 E7        29.80F
SYRACUSE       CLOUDY    54  53  97 E10       29.80F
ROME           RAIN      52  50  93 SE10      29.84F FOG
ELMIRA         LGT RAIN  56  52  86 CALM      29.78F
BINGHAMTON     CLOUDY    52  50  93 SE8       29.78F
$$

NYZ026>034-041>043-087-251800-
NORTH


CITY           SKY/WX    TMP DP  RH WIND       PRES   REMARKS
WATERTOWN      LGT RAIN  55  54  96 E6        29.81F VSB 1
FORT DRUM      NOT AVBL
OGDENSBURG     LGT RAIN  57  52  83 E13       29.85F
MASSENA        LGT RAIN  57  51  80 NE9       29.88F
SARANAC LAKE   LGT RAIN  53  48  83 E8        29.85F
PLATTSBURGH    LGT RAIN  54  50  86 SE5       29.92F
$$

NYZ001>004-010>016-019>021-085-251800-
WEST


CITY           SKY/WX    TMP DP  RH WIND       PRES   REMARKS
NIAGARA FALLS  LGT RAIN  54  50  86 NW6       29.79F FOG
BUFFALO        CLOUDY    54  51  90 SW9       29.79F
DUNKIRK        CLOUDY    50  50 100 NW5       29.82S FOG
JAMESTOWN      LGT RAIN  50  49  96 SW7       29.81F FOG
WELLSVILLE     CLOUDY    55  50  83 SW5       29.79F
ROCHESTER      CLOUDY    56  51  84 SE3       29.79F
PENN YAN       CLOUDY    55  50  83 CALM      29.79F
$$

             KEY
       WCI = WIND CHILL INDEX
       VSB = VISIBILITY
       HX  = HEAT INDEX
$$




USA.gov is the U.S. government's official web portal to all federal, state and local government web resources and services.